{"data":{"norad_id":68566,"intl_designator":"2026-070AA","name":"STARLINK-37212","alt_names":[],"object_type":"PAYLOAD","status":"ACTIVE","operator":null,"country":"US","launch_date":"2026-04-02","launch_site_code":"AFETR","launch_vehicle":null,"mission":null,"orbit_class":"UNKNOWN","rcs_meters":null,"size_class":null,"mass_kg":null,"dimensions":null,"purposes":["comms"],"wikipedia_slug":null,"has_3d_model":false,"image_url":null,"decayed_at":null,"tle_current":{"epoch":"2026-05-24T21:35:09.362688Z","epoch_age_seconds":77589,"freshness":"FRESH","line1":"1 68566U 26070AA  26144.89941392  .00020413  00000+0  61363-3 0  9999","line2":"2 68566  53.1597   7.8184 0000577  82.6120 277.4948 15.34399352  8237","mean_motion":15.34399352,"eccentricity":5.77e-5,"inclination_deg":53.1597,"raan_deg":7.8184,"arg_perigee_deg":82.612,"mean_anomaly_deg":277.4948,"bstar":0.00061363,"rev_number":823,"period_min":93.847797714659,"perigee_km":462.31044960735,"apogee_km":463.09988279333,"semimajor_km":6840.8421662003,"source":"CELESTRAK","updated_at":"2026-05-25T13:38:21.964792Z"}}}